Simultaneous Nadir Overpasses (SNOs) Predictions

Prediction of SNOs between GOES-14 and NOAA-20 Satellite Orbit:

Table of predicted SNOs for the next 14.0 days since TLE Epoch: 7/17/2021
Index Date Time (GOES-14) GOES-14 Lat,Lon NOAA-20 Lat,Lon Distance(km) Time Diff (sec)
1 07/17/2021 20:17:46 0.21,-104.35 0.53,-103.04 149.86 80
2 07/19/2021 08:36:53 -0.24,-104.11 0.68,-108.30 477.29 80
3 07/20/2021 08:20:48 -0.23,-104.11 -0.28,-103.76 39.24 80
4 07/22/2021 20:21:21 0.25,-104.34 0.18,-104.55 24.44 80
5 07/23/2021 20:05:16 0.24,-104.35 1.20,-100.02 492.70 80
6 07/25/2021 08:24:24 -0.27,-104.12 0.01,-105.29 133.84 80
7 07/26/2021 08:08:19 -0.26,-104.12 -1.01,-100.76 382.92 80
8 07/27/2021 20:27:36 0.29,-104.35 -0.11,-106.08 197.18 80
9 07/28/2021 20:11:32 0.27,-104.36 0.92,-101.55 320.52 80
10 07/30/2021 08:33:19 -0.31,-104.15 0.29,-106.81 303.91 80
